Tracking 17844 objects as of 26-August-2016
HD Live streaming from Space Station
objects crossing your sky now

GLOBALSTAR M082

Track GLOBALSTAR M082 now!
10-day predictions
GLOBALSTAR M082 is classified as:


NORAD ID: 38042
Int'l Code: 2011-080C
Perigee: 1,420.0 km
Apogee: 1,421.6 km
Inclination: 52.0 °
Period: 114.1 minutes
Semi major axis: 7791 km
RCS: 4.8173 m2 (large)
Launch date: December 28, 2011
Source: Globalstar (GLOB)
Launch site: TYURATAM MISSILE AND SPACE COMPLEX (TTMTR)
Your satellite tracking list
Your tracking list is empty





NASA's NSSDC Master Catalog

Two Line Element Set (TLE):
1 38042U 11080C   16238.91469001 -.00000105 +00000-0 -54969-5 0  9993
2 38042 052.0071 078.7361 0001032 077.0408 061.1119 12.62263296217309
Source of the keplerian elements: AFSPC

N2YO: 541